Wind_Speed
23 23 22 22 22 22 21 21 20 20 20 20 21 21 21 22 22 23 24 24 25 26 27 28 30 31 32 33 34 34 35 35 34 34 33 32 32 31 31 31 31 30 29
24 24 24 24 24 23 23 23 23 23 23 23 23 23 24 24 25 26 26 27 28 29 30 31 32 33 34 35 36 36 37 37 35 35 34 32 32 32 32 32 31 31 30
26 26 26 25 25 25 25 25 25 26 26 26 26 26 26 27 28 29 29 30 30 31 32 33 34 35 36 37 38 38 38 37 36 36 34 33 33 33 33 32 32 31 30
27 27 27 27 27 27 27 27 28 28 28 28 29 29 29 30 31 32 32 33 33 34 35 36 37 37 38 39 39 39 39 38 37 36 35 34 34 34 34 33 32 31 30
30 29 29 29 29 29 29 30 30 30 30 31 31 31 32 33 34 35 35 36 36 37 38 38 39 39 40 40 40 40 39 38 37 36 35 34 34 35 34 33 33 32 30
32 31 31 31 31 31 32 32 32 33 33 34 34 34 35 36 36 37 38 39 39 40 40 41 41 41 41 41 41 40 39 38 37 36 35 35 35 35 34 34 33 32 31
34 34 33 33 33 34 34 34 35 35 36 36 36 36 37 38 39 39 40 41 41 42 42 42 42 42 42 42 41 41 40 38 37 36 36 35 35 35 35 34 33 32 31
37 37 36 36 36 36 36 37 37 38 38 39 39 39 39 39 40 41 42 43 44 44 44 44 43 43 43 43 42 41 40 39 38 37 37 36 36 35 35 34 33 32 30
36 36 36 37 37 37 38 38 38 38 39 40 40 41 41 41 41 42 43 44 44 45 45 45 45 44 44 43 43 41 40 40 39 38 38 37 36 36 35 34 33 31 29
38 37 38 38 39 39 39 40 40 40 41 41 42 42 43 43 43 43 43 44 45 46 46 46 46 45 44 43 43 42 41 41 40 39 38 37 36 36 35 34 32 30 29
39 39 39 40 41 41 41 41 41 42 43 43 43 43 44 45 46 46 45 46 46 47 47 46 46 45 44 43 42 42 41 41 40 40 38 37 36 36 35 33 31 30 28
39 39 39 41 41 41 42 42 42 43 44 44 45 45 46 46 47 48 48 48 48 48 47 47 46 45 44 44 43 42 42 41 40 39 38 37 36 36 34 32 30 28 27
39 39 39 40 41 41 42 43 44 44 44 45 46 47 47 48 48 49 50 49 49 48 47 47 46 46 45 45 44 43 42 41 40 39 38 37 36 35 33 31 29 28 26
40 41 41 41 42 43 43 43 44 44 45 46 47 47 48 49 49 49 50 49 49 48 47 47 47 46 46 45 44 43 42 41 40 39 38 37 35 33 31 29 28 27 26
42 42 43 44 44 44 45 45 45 46 46 46 47 48 48 48 48 48 49 48 48 48 47 47 46 46 46 44 43 42 41 41 39 38 37 35 33 31 30 28 27 26 26
44 45 45 44 44 45 45 46 46 46 46 46 47 46 46 46 47 47 48 48 48 47 46 45 45 45 44 43 42 42 41 40 38 38 36 33 32 30 29 28 27 26 25
45 45 46 46 46 46 46 46 46 46 47 47 47 47 47 47 47 47 47 47 47 47 46 45 44 43 42 42 41 40 40 38 37 35 33 31 30 29 28 28 27 26 25
47 47 48 47 47 47 47 46 46 46 46 46 46 46 46 46 46 47 46 46 46 46 45 44 43 42 42 41 40 39 38 37 35 33 32 30 29 28 28 27 27 26 25
47 48 47 47 47 47 47 47 47 47 47 46 46 46 46 46 46 46 45 45 44 44 43 42 41 41 40 39 39 38 37 36 34 32 31 30 29 28 27 26 26 25 25
46 46 46 46 46 46 46 47 46 46 46 46 46 46 45 45 45 44 44 43 43 42 41 40 39 39 38 38 38 37 36 34 33 32 30 29 29 28 26 26 25 25 24
45 46 46 46 46 46 46 45 45 45 45 45 44 44 44 44 43 43 42 42 42 41 40 39 38 38 38 37 36 35 34 33 31 30 29 29 28 27 26 26 26 25 25
44 44 44 44 44 44 44 44 44 44 44 43 43 43 43 42 42 41 40 40 39 39 39 38 37 37 36 35 34 33 32 31 30 29 29 28 28 27 27 26 26 26 26
43 42 42 43 43 43 43 43 43 43 43 42 42 42 41 41 40 40 39 38 38 37 36 36 35 35 34 33 32 31 30 30 30 29 29 28 28 28 27 27 27 27 27
43 42 42 42 43 43 43 43 42 42 42 42 42 41 40 39 38 37 37 36 36 35 35 35 34 33 33 32 31 30 29 29 29 29 28 28 28 28 28 28 28 28 28
43 43 43 43 43 43 43 42 41 41 41 41 41 40 39 38 37 36 35 35 35 34 34 34 33 32 31 31 30 29 29 28 28 28 28 28 28 28 28 28 29 29 29
42 43 43 43 43 42 42 42 42 41 41 40 39 38 38 37 36 35 35 34 34 33 33 33 32 31 30 30 29 29 28 28 28 28 28 28 29 29 29 29 29 29 29
Wind_Direction
244 248 251 254 256 258 259 261 262 264 267 269 272 274 277 281 284 288 291 293 296 299 301 303 305 308 311 312 313 314 314 313 312 312 312 311 312 312 314 314 314 313 311
245 247 251 254 256 258 260 262 264 265 267 269 272 275 278 281 285 288 290 293 296 297 299 301 303 306 308 310 310 311 311 311 310 310 310 309 310 311 312 313 312 312 310
245 248 250 253 256 259 261 263 265 267 269 271 273 276 279 282 284 287 290 292 294 296 298 300 302 304 306 307 308 308 308 308 307 308 307 307 308 309 310 311 311 310 308
245 248 251 253 256 258 261 263 266 268 270 272 274 277 279 281 284 286 289 290 292 294 296 298 300 302 303 305 306 306 306 305 305 305 305 305 306 307 308 309 309 308 306
245 248 251 253 256 258 261 264 266 269 271 273 276 278 280 282 284 286 288 289 291 293 295 297 298 300 301 302 303 303 303 304 303 302 302 303 304 305 306 307 307 306 304
246 248 251 253 256 259 261 264 267 269 271 273 275 278 280 282 284 286 287 288 290 292 293 295 297 298 299 300 301 301 301 301 301 301 301 301 302 304 304 305 305 304 302
247 249 251 254 256 259 261 263 266 268 271 273 275 277 280 282 284 285 286 288 290 291 293 294 296 297 298 299 299 299 299 299 299 299 299 300 301 302 303 303 303 301 300
249 250 252 255 257 260 262 264 266 269 271 273 275 277 279 281 284 286 287 288 290 291 293 294 295 296 297 297 297 297 297 297 297 297 298 299 301 301 301 301 301 299 296
249 252 255 256 258 260 263 265 268 270 272 275 277 278 279 281 282 285 287 288 290 291 293 294 294 295 295 295 295 295 295 295 295 295 296 297 299 299 299 299 298 296 293
251 253 257 259 261 263 265 267 269 270 273 276 278 279 282 283 284 284 286 287 288 290 291 292 293 293 294 293 293 293 293 293 294 294 295 296 297 297 297 296 294 293 290
256 256 258 261 264 265 266 268 270 271 274 276 278 280 282 283 285 286 287 288 289 290 291 291 291 291 291 291 291 291 291 291 292 292 293 294 294 294 294 292 291 289 287
258 259 262 264 266 267 267 269 271 273 275 277 279 281 282 284 285 286 287 288 289 290 290 290 290 290 290 290 290 290 290 290 290 291 291 292 293 293 292 290 288 287 284
259 261 264 265 267 269 270 272 273 275 277 279 280 281 283 284 285 286 287 288 288 289 289 289 290 289 289 289 289 289 289 289 289 289 290 291 291 291 289 286 285 284 282
264 265 268 268 269 271 274 275 275 275 278 280 281 282 284 284 285 286 287 287 288 288 289 289 289 289 289 289 288 288 288 288 288 289 290 289 288 287 285 282 282 281 280
266 269 270 270 272 273 274 275 276 277 280 281 282 284 284 285 285 286 287 287 288 288 288 289 288 288 288 287 287 287 287 288 288 288 288 287 285 284 282 280 280 280 278
267 269 271 271 272 273 274 276 278 279 280 281 282 283 284 285 286 287 288 288 289 289 289 288 287 287 287 286 286 286 286 286 286 287 286 284 283 281 278 278 278 278 277
267 269 271 272 273 274 275 276 278 279 280 281 282 283 284 285 286 287 288 288 289 288 288 288 287 287 286 286 285 286 286 285 286 285 284 283 281 279 276 276 276 277 275
268 270 272 273 273 274 275 277 278 279 280 281 282 284 285 286 288 288 288 288 288 288 288 287 287 286 285 285 284 285 285 284 284 283 281 279 278 276 276 275 275 275 274
269 270 271 272 273 274 276 277 278 279 280 281 283 284 285 286 287 288 288 288 289 288 288 287 286 286 285 285 284 284 284 283 281 280 278 276 275 276 274 274 274 273 273
268 269 270 271 272 274 276 277 278 280 280 281 283 284 285 286 286 287 287 288 288 288 287 287 286 285 285 285 285 284 283 281 280 278 276 275 276 274 272 272 273 273 272
267 268 269 271 272 274 275 276 278 279 280 282 283 284 284 285 285 286 287 287 287 286 286 286 286 285 285 285 284 283 281 280 278 275 274 274 274 272 271 272 273 272 272
267 268 269 270 271 273 275 277 278 279 281 282 283 283 284 285 285 286 286 286 286 286 286 286 285 285 285 284 283 281 279 277 276 275 274 273 271 271 271 272 273 273 272
266 268 269 270 272 274 276 277 278 279 280 281 282 283 283 284 285 285 285 285 285 286 286 286 285 285 284 283 281 279 278 277 275 274 273 272 272 271 271 272 273 273 273
267 268 269 271 272 274 276 277 278 279 280 281 282 282 283 283 283 284 284 284 285 285 286 285 285 285 283 282 280 278 277 275 276 275 273 273 273 272 272 272 273 273 273
266 267 269 271 272 274 275 276 277 279 279 280 280 281 282 281 282 283 284 284 284 284 285 285 285 283 282 280 278 277 276 275 275 275 274 274 274 273 273 274 274 274 273
265 267 269 270 271 273 274 275 276 277 278 279 279 279 280 280 281 282 283 283 283 283 284 284 283 282 281 279 277 277 276 275 275 275 275 274 275 274 274 274 274 274 274
Height
5844 5846 5847 5848 5849 5850 5851 5852 5852 5852 5852 5852 5852 5852 5852 5851 5851 5850 5849 5848 5846 5845 5843 5841 5839 5836 5833 5831 5827 5824 5821 5818 5815 5812 5808 5805 5802 5799 5796 5793 5790 5787 5784
5839 5841 5842 5843 5844 5845 5846 5847 5847 5847 5847 5847 5847 5847 5847 5846 5846 5845 5843 5842 5841 5839 5837 5835 5833 5830 5827 5824 5821 5818 5815 5812 5809 5806 5802 5799 5796 5793 5790 5787 5784 5781 5779
5833 5835 5837 5838 5839 5840 5841 5841 5842 5842 5842 5842 5842 5842 5841 5841 5840 5839 5838 5836 5835 5833 5831 5829 5826 5824 5821 5818 5815 5812 5808 5805 5802 5799 5796 5793 5790 5787 5784 5781 5778 5776 5773
5827 5829 5831 5832 5833 5834 5835 5836 5836 5836 5836 5836 5836 5836 5835 5834 5833 5833 5831 5830 5828 5827 5824 5822 5820 5817 5814 5811 5808 5805 5801 5798 5796 5792 5789 5786 5784 5781 5778 5775 5772 5769 5767
5821 5823 5824 5825 5827 5828 5829 5829 5830 5830 5830 5830 5830 5829 5829 5828 5827 5826 5824 5823 5821 5819 5817 5815 5812 5810 5807 5804 5800 5797 5794 5791 5788 5785 5783 5780 5777 5774 5771 5768 5766 5763 5761
5814 5816 5817 5818 5820 5821 5821 5822 5823 5823 5823 5823 5823 5822 5822 5821 5820 5818 5817 5815 5814 5811 5809 5807 5804 5802 5799 5796 5793 5790 5787 5784 5781 5778 5775 5772 5770 5767 5764 5761 5759 5756 5754
5806 5808 5810 5811 5812 5813 5814 5815 5815 5815 5815 5815 5815 5815 5814 5813 5812 5811 5809 5807 5805 5803 5801 5799 5796 5793 5791 5787 5784 5781 5778 5776 5773 5770 5768 5765 5762 5760 5757 5754 5752 5750 5747
5798 5800 5801 5803 5804 5805 5806 5806 5807 5807 5807 5807 5807 5807 5807 5806 5804 5802 5800 5798 5796 5794 5792 5790 5787 5784 5781 5779 5776 5773 5770 5767 5765 5762 5759 5757 5754 5752 5750 5747 5745 5743 5741
5790 5792 5793 5795 5796 5797 5798 5798 5798 5799 5799 5798 5797 5797 5797 5797 5796 5794 5792 5789 5787 5785 5783 5780 5777 5775 5772 5769 5767 5764 5761 5758 5756 5753 5751 5749 5746 5744 5742 5739 5737 5735 5734
5782 5784 5785 5787 5787 5788 5789 5789 5790 5790 5790 5789 5788 5787 5787 5786 5785 5785 5783 5780 5778 5776 5773 5771 5768 5765 5762 5760 5757 5755 5752 5749 5747 5745 5743 5740 5738 5736 5734 5731 5729 5728 5726
5774 5776 5777 5778 5779 5779 5780 5780 5781 5781 5780 5780 5779 5778 5777 5775 5774 5774 5773 5771 5768 5766 5763 5760 5758 5755 5752 5750 5747 5745 5742 5740 5737 5735 5733 5731 5729 5727 5725 5723 5721 5720 5719
5766 5767 5768 5769 5769 5770 5770 5771 5771 5771 5770 5770 5769 5768 5766 5765 5764 5762 5761 5760 5758 5755 5752 5750 5747 5744 5742 5739 5737 5734 5732 5730 5728 5726 5724 5722 5720 5718 5716 5714 5713 5712 5712
5757 5758 5759 5760 5760 5761 5761 5761 5761 5761 5760 5759 5758 5757 5756 5754 5753 5751 5749 5748 5746 5744 5741 5739 5736 5733 5731 5728 5726 5724 5722 5720 5718 5716 5714 5712 5710 5709 5707 5706 5705 5705 5704
5747 5748 5749 5750 5750 5751 5751 5751 5750 5750 5749 5749 5748 5746 5745 5743 5741 5739 5738 5736 5734 5733 5730 5728 5724 5722 5720 5717 5715 5713 5711 5709 5708 5706 5704 5703 5701 5700 5699 5698 5697 5697 5697
5737 5738 5739 5740 5740 5740 5741 5741 5740 5740 5739 5738 5737 5735 5734 5732 5730 5728 5726 5724 5723 5721 5719 5716 5713 5711 5708 5706 5704 5703 5701 5699 5697 5696 5694 5693 5692 5691 5690 5690 5690 5689 5689
5727 5728 5729 5729 5730 5730 5730 5729 5729 5728 5728 5727 5725 5724 5722 5720 5718 5716 5714 5712 5710 5709 5707 5705 5702 5700 5697 5695 5694 5692 5690 5689 5687 5686 5685 5684 5683 5682 5682 5682 5682 5681 5681
5717 5717 5718 5718 5719 5719 5719 5718 5718 5717 5716 5715 5714 5713 5711 5709 5707 5705 5703 5701 5698 5697 5695 5693 5691 5688 5686 5685 5683 5681 5680 5678 5677 5676 5675 5675 5674 5674 5674 5674 5674 5674 5674
5706 5706 5707 5707 5707 5707 5707 5707 5706 5706 5705 5703 5702 5701 5699 5697 5695 5693 5691 5689 5687 5685 5683 5682 5679 5677 5676 5674 5673 5671 5670 5669 5668 5667 5666 5666 5666 5666 5665 5666 5666 5666 5666
5694 5695 5695 5695 5695 5696 5695 5695 5695 5694 5693 5692 5690 5689 5688 5686 5684 5682 5680 5678 5675 5673 5672 5670 5668 5667 5665 5664 5662 5661 5660 5659 5658 5658 5657 5657 5657 5657 5657 5657 5658 5658 5658
5682 5683 5684 5684 5684 5684 5684 5683 5683 5682 5681 5680 5679 5677 5676 5674 5672 5670 5668 5666 5664 5663 5661 5659 5658 5656 5655 5653 5652 5651 5650 5650 5649 5649 5649 5649 5649 5649 5649 5650 5650 5650 5651
5671 5672 5672 5672 5672 5672 5672 5672 5671 5670 5669 5668 5667 5666 5664 5662 5661 5659 5657 5655 5654 5652 5650 5649 5647 5646 5645 5644 5643 5642 5641 5640 5640 5640 5640 5640 5641 5641 5641 5642 5642 5642 5643
5659 5660 5660 5661 5661 5661 5661 5660 5660 5659 5658 5657 5656 5654 5653 5651 5650 5648 5646 5645 5643 5642 5640 5639 5637 5636 5635 5634 5633 5632 5632 5632 5632 5632 5632 5632 5632 5633 5633 5634 5634 5634 5635
5648 5649 5649 5649 5649 5649 5649 5649 5648 5648 5647 5645 5644 5643 5642 5640 5639 5637 5636 5634 5633 5632 5630 5629 5628 5627 5626 5625 5624 5624 5623 5623 5623 5624 5624 5624 5624 5624 5625 5625 5626 5626 5626
5636 5637 5638 5638 5638 5638 5638 5638 5637 5636 5635 5634 5633 5632 5631 5630 5628 5627 5626 5624 5623 5622 5621 5619 5618 5617 5617 5616 5615 5615 5615 5615 5615 5615 5615 5616 5616 5616 5616 5617 5617 5617 5617
5625 5625 5626 5627 5627 5627 5627 5627 5626 5625 5624 5623 5622 5621 5620 5619 5618 5617 5616 5615 5614 5613 5611 5610 5609 5608 5608 5607 5607 5607 5607 5607 5607 5607 5607 5607 5607 5608 5608 5608 5608 5608 5608
5613 5614 5614 5615 5615 5615 5615 5615 5614 5614 5613 5612 5611 5611 5610 5609 5608 5607 5606 5605 5604 5603 5602 5601 5600 5600 5599 5599 5599 5598 5598 5598 5598 5599 5599 5599 5599 5599 5599 5599 5599 5599 5599